When you browse on this site, cookies collect data to enhance your experience and personalize the content and advertising you see.
Visit our Privacy Policy to learn more. By continuing to use the site, you agree to this use of cookies and data.
  • en France
  • Liste des pays
  • À 7 jours
  • Température de l'eau
  • Carte satellitaire
  • Carte météo
  • Widgets météo
  • user-avatar
    Se connecter

    Météo par heure à Zaranj

    Ce jour, 18 Novembre, Dimanche

    Heure Température Précipitation Vent Pression Humidité
    00:00 +20°C° 0 mm 5 m/s 720 mmHg 35%
    01:00 +20°C° 0 mm 5 m/s 720 mmHg 39%
    02:00 +19°C° 0 mm 5 m/s 720 mmHg 39%
    03:00 +19°C° 0 mm 5 m/s 720 mmHg 40%
    04:00 +17°C° 0 mm 5 m/s 720 mmHg 41%
    05:00 +17°C° 0 mm 5 m/s 720 mmHg 41%
    06:00 +16°C° 0 mm 5 m/s 721 mmHg 41%
    07:00 +16°C° 0 mm 5 m/s 721 mmHg 42%
    08:00 +19°C° 0 mm 6 m/s 721 mmHg 38%
    09:00 +20°C° 0 mm 6 m/s 721 mmHg 34%
    10:00 +22°C° 0 mm 6 m/s 722 mmHg 31%
    11:00 +23°C° 0 mm 6 m/s 721 mmHg 30%
    12:00 +24°C° 0 mm 6 m/s 721 mmHg 28%
    13:00 +24°C° 0 mm 6 m/s 721 mmHg 27%
    14:00 +24°C° 0 mm 6 m/s 720 mmHg 27%
    15:00 +24°C° 0 mm 6 m/s 720 mmHg 28%
    16:00 +23°C° 0 mm 6 m/s 720 mmHg 28%
    17:00 +22°C° 0 mm 5 m/s 720 mmHg 31%
    18:00 +21°C° 0 mm 5 m/s 721 mmHg 34%
    19:00 +20°C° 0 mm 4 m/s 721 mmHg 37%
    20:00 +19°C° 0 mm 4 m/s 721 mmHg 39%
    21:00 +19°C° 0 mm 4 m/s 721 mmHg 41%
    22:00 +18°C° 0 mm 4 m/s 721 mmHg 44%
    23:00 +18°C° 0 mm 4 m/s 721 mmHg 45%

    Demain, 19 Novembre, Lundi

    Heure Température Précipitation Vent Pression Humidité
    00:00 +17°C° 0 mm 4 m/s 721 mmHg 46%
    01:00 +17°C° 0 mm 4 m/s 721 mmHg 47%
    02:00 +15°C° 0 mm 4 m/s 721 mmHg 48%
    03:00 +16°C° 0 mm 3 m/s 721 mmHg 48%
    04:00 +14°C° 0 mm 3 m/s 721 mmHg 49%
    05:00 +14°C° 0 mm 3 m/s 721 mmHg 49%
    06:00 +15°C° 0 mm 2 m/s 721 mmHg 50%
    07:00 +15°C° 0 mm 2 m/s 722 mmHg 50%
    08:00 +17°C° 0 mm 2 m/s 722 mmHg 45%
    09:00 +18°C° 0 mm 2 m/s 722 mmHg 40%
    10:00 +20°C° 0 mm 2 m/s 723 mmHg 35%
    11:00 +21°C° 0 mm 2 m/s 722 mmHg 32%
    12:00 +23°C° 0 mm 2 m/s 722 mmHg 28%
    13:00 +24°C° 0 mm 2 m/s 722 mmHg 25%
    14:00 +24°C° 0 mm 2 m/s 722 mmHg 25%
    15:00 +24°C° 0 mm 2 m/s 721 mmHg 24%
    16:00 +24°C° 0 mm 2 m/s 721 mmHg 24%
    17:00 +23°C° 0 mm 2 m/s 721 mmHg 26%
    18:00 +22°C° 0 mm 1 m/s 722 mmHg 27%
    19:00 +21°C° 0 mm 1 m/s 722 mmHg 29%
    20:00 +20°C° 0 mm 1 m/s 722 mmHg 30%
    21:00 +20°C° 0 mm 1 m/s 722 mmHg 31%
    22:00 +19°C° 0 mm 1 m/s 722 mmHg 32%
    23:00 +19°C° 0 mm 1 m/s 722 mmHg 33%

    Après-demain, 20 Novembre, Mardi

    Heure Température Précipitation Vent Pression Humidité
    00:00 +18°C° 0 mm 2 m/s 722 mmHg 34%
    01:00 +18°C° 0 mm 2 m/s 722 mmHg 34%
    02:00 +17°C° 0 mm 2 m/s 722 mmHg 35%
    03:00 +17°C° 0 mm 2 m/s 722 mmHg 36%
    04:00 +17°C° 0 mm 2 m/s 722 mmHg 36%
    05:00 +17°C° 0 mm 2 m/s 722 mmHg 36%
    06:00 +17°C° 0 mm 2 m/s 722 mmHg 36%
    07:00 +17°C° 0 mm 3 m/s 723 mmHg 37%
    08:00 +18°C° 0 mm 3 m/s 723 mmHg 33%
    09:00 +20°C° 0 mm 3 m/s 723 mmHg 29%
    10:00 +21°C° 0 mm 3 m/s 724 mmHg 26%
    11:00 +22°C° 0 mm 3 m/s 723 mmHg 24%
    12:00 +24°C° 0 mm 3 m/s 722 mmHg 23%
    13:00 +25°C° 0 mm 3 m/s 722 mmHg 21%
    14:00 +25°C° 0 mm 3 m/s 721 mmHg 21%
    15:00 +26°C° 0 mm 3 m/s 721 mmHg 21%
    16:00 +26°C° 0 mm 2 m/s 721 mmHg 21%
    17:00 +25°C° 0 mm 3 m/s 721 mmHg 23%
    18:00 +24°C° 0 mm 3 m/s 721 mmHg 25%
    19:00 +22°C° 0 mm 4 m/s 721 mmHg 27%
    20:00 +21°C° 0 mm 4 m/s 721 mmHg 28%
    21:00 +21°C° 0 mm 4 m/s 721 mmHg 29%
    22:00 +21°C° 0 mm 4 m/s 721 mmHg 31%
    23:00 +20°C° 0 mm 4 m/s 721 mmHg 31%

    21 Novembre, Mercredi

    Heure Température Précipitation Vent Pression Humidité
    00:00 +20°C° 0 mm 4 m/s 720 mmHg 32%
    01:00 +20°C° 0 mm 3 m/s 720 mmHg 33%
    02:00 +20°C° 0.1 mm 3 m/s 719 mmHg 34%
    03:00 +19°C° 0.1 mm 3 m/s 719 mmHg 35%
    04:00 +19°C° 0.1 mm 3 m/s 719 mmHg 36%
    05:00 +19°C° 0.2 mm 3 m/s 719 mmHg 37%
    06:00 +19°C° 0.2 mm 3 m/s 719 mmHg 38%
    07:00 +19°C° 0.2 mm 4 m/s 719 mmHg 39%
    08:00 +19°C° 0.2 mm 3 m/s 719 mmHg 37%
    09:00 +20°C° 0.2 mm 3 m/s 720 mmHg 35%
    10:00 +21°C° 0.2 mm 3 m/s 720 mmHg 33%
    11:00 +21°C° 0.2 mm 3 m/s 719 mmHg 32%
    12:00 +22°C° 0.2 mm 3 m/s 718 mmHg 32%
    13:00 +23°C° 0.2 mm 2 m/s 718 mmHg 31%
    14:00 +22°C° 0.4 mm 3 m/s 717 mmHg 33%
    15:00 +22°C° 0.4 mm 3 m/s 717 mmHg 34%
    16:00 +22°C° 0.4 mm 4 m/s 717 mmHg 35%
    17:00 +22°C° 0 mm 3 m/s 717 mmHg 37%
    18:00 +21°C° 0 mm 3 m/s 718 mmHg 40%
    19:00 +20°C° 0 mm 3 m/s 718 mmHg 43%
    20:00 +19°C° 0 mm 2 m/s 719 mmHg 45%
    21:00 +19°C° 0 mm 2 m/s 719 mmHg 48%
    22:00 +19°C° 0 mm 1 m/s 720 mmHg 51%
    23:00 +18°C° 0 mm 2 m/s 720 mmHg 52%

    22 Novembre, Jeudi

    Heure Température Précipitation Vent Pression Humidité
    00:00 +18°C° 0 mm 2 m/s 720 mmHg 54%
    01:00 +17°C° 0 mm 2 m/s 720 mmHg 56%
    02:00 +17°C° 0 mm 2 m/s 720 mmHg 58%
    03:00 +17°C° 0 mm 3 m/s 720 mmHg 61%
    04:00 +16°C° 0 mm 3 m/s 720 mmHg 63%
    05:00 +16°C° 0 mm 3 m/s 720 mmHg 64%
    06:00 +16°C° 0 mm 3 m/s 721 mmHg 65%
    07:00 +16°C° 0 mm 3 m/s 721 mmHg 65%
    08:00 +17°C° 0 mm 2 m/s 722 mmHg 60%
    09:00 +19°C° 0 mm 2 m/s 722 mmHg 54%
    10:00 +20°C° 0 mm 2 m/s 723 mmHg 49%
    11:00 +21°C° 0 mm 2 m/s 722 mmHg 46%
    12:00 +23°C° 0 mm 1 m/s 721 mmHg 42%
    13:00 +23°C° 0 mm 1 m/s 721 mmHg 39%
    14:00 +24°C° 0 mm 1 m/s 721 mmHg 37%
    15:00 +24°C° 0 mm 1 m/s 721 mmHg 36%
    16:00 +24°C° 0 mm 1 m/s 721 mmHg 34%
    17:00 +23°C° 0 mm 1 m/s 721 mmHg 37%
    18:00 +22°C° 0 mm 1 m/s 721 mmHg 39%
    19:00 +21°C° 0 mm 2 m/s 722 mmHg 41%
    20:00 +20°C° 0 mm 2 m/s 722 mmHg 42%
    21:00 +21°C° 0 mm 1 m/s 722 mmHg 44%
    22:00 +20°C° 0 mm 1 m/s 722 mmHg 45%
    23:00 +19°C° 0 mm 2 m/s 722 mmHg 45%

    23 Novembre, Vendredi

    Heure Température Précipitation Vent Pression Humidité
    00:00 +19°C° 0 mm 2 m/s 722 mmHg 46%
    01:00 +18°C° 0 mm 2 m/s 721 mmHg 47%
    02:00 +18°C° 0 mm 2 m/s 721 mmHg 47%
    03:00 +18°C° 0 mm 2 m/s 721 mmHg 48%
    04:00 +17°C° 0 mm 2 m/s 721 mmHg 48%
    05:00 +17°C° 0 mm 2 m/s 721 mmHg 48%
    06:00 +17°C° 0 mm 2 m/s 722 mmHg 47%
    07:00 +17°C° 0 mm 2 m/s 722 mmHg 46%
    08:00 +19°C° 0 mm 2 m/s 722 mmHg 41%
    09:00 +21°C° 0 mm 2 m/s 723 mmHg 36%
    10:00 +22°C° 0 mm 3 m/s 723 mmHg 31%
    11:00 +25°C° 0 mm 3 m/s 722 mmHg 29%
    12:00 +26°C° 0 mm 3 m/s 721 mmHg 28%
    13:00 +27°C° 0 mm 3 m/s 721 mmHg 26%
    14:00 +27°C° 0 mm 3 m/s 720 mmHg 25%
    15:00 +27°C° 0 mm 2 m/s 720 mmHg 25%
    16:00 +27°C° 0 mm 2 m/s 720 mmHg 25%
    17:00 +26°C° 0 mm 2 m/s 720 mmHg 27%
    18:00 +25°C° 0 mm 1 m/s 720 mmHg 29%
    19:00 +24°C° 0 mm 1 m/s 721 mmHg 31%
    20:00 +24°C° 0 mm 2 m/s 721 mmHg 31%
    21:00 +23°C° 0 mm 2 m/s 721 mmHg 31%
    22:00 +23°C° 0 mm 2 m/s 721 mmHg 31%
    23:00 +23°C° 0 mm 2 m/s 720 mmHg 33%
    Voir plus